User: anonymous   Login
Location: Unspecified
(0.0000°N, 0.0000°E)
Time: 10:17:58
(UTC+00:00)
Language:

LilacSat-2 - Orbit

View from above orbital plane
View from above orbital plane
View from above satellite
View from above satellite

Ground track
Ground track

The orbit data is extracted from the following two-line orbital elements,

1 40908U 15049K   21340.85634528  .00001347  00000-0  76069-4 0  9998
2 40908  97.5110 338.6039 0014659 329.1214 150.0876 15.14754050343329
Epoch (UTC): 06 December 2021 20:33:08
Eccentricity: 0.0014659
inclination: 97.5110°
perigee height: 511 km
apogee height: 532 km
right ascension of ascending node: 338.6039°
argument of perigee: 329.1214°
revolutions per day: 15.14754050
mean anomaly at epoch: 150.0876°
orbit number at epoch: 34332

The dashed part of the orbit path shows where the satellite is in the earth's shadow,  

DLR